TimeMDT,TemperatureF,Dew PointF,Humidity,Sea Level PressureIn,VisibilityMPH,Wind Direction,Wind SpeedMPH,Gust SpeedMPH,PrecipitationIn,Events,Conditions,WindDirDegrees,DateUTC
12:15 AM,61.2,53.8,77,30.25,10.0,NNW,3.5,-,N/A,,Overcast,330,2013-09-10 06:15:00
12:35 AM,61.5,53.6,75,30.25,10.0,NNW,5.8,-,N/A,,Overcast,340,2013-09-10 06:35:00
12:55 AM,61.3,53.6,76,30.26,10.0,WNW,4.6,-,N/A,,Mostly Cloudy,290,2013-09-10 06:55:00
1:15 AM,61.2,54.0,77,30.27,10.0,Calm,Calm,-,N/A,,Overcast,0,2013-09-10 07:15:00
1:35 AM,60.8,54.3,79,30.27,10.0,Calm,Calm,-,N/A,,Overcast,0,2013-09-10 07:35:00
1:55 AM,59.9,54.9,83,30.27,10.0,Calm,Calm,-,N/A,,Overcast,0,2013-09-10 07:55:00
2:15 AM,59.9,55.0,84,30.28,10.0,Calm,Calm,-,N/A,,Overcast,0,2013-09-10 08:15:00
2:35 AM,59.4,54.7,84,30.29,10.0,Calm,Calm,-,N/A,,Overcast,0,2013-09-10 08:35:00
2:55 AM,59.2,54.1,83,30.29,10.0,Calm,Calm,-,N/A,,Overcast,0,2013-09-10 08:55:00
3:15 AM,59.2,54.3,84,30.29,10.0,Calm,Calm,-,N/A,,Mostly Cloudy,0,2013-09-10 09:15:00
3:35 AM,59.2,54.1,83,30.29,10.0,Calm,Calm,-,N/A,,Overcast,0,2013-09-10 09:35:00
3:55 AM,59.2,54.1,83,30.29,10.0,Calm,Calm,-,N/A,,Overcast,0,2013-09-10 09:55:00
4:15 AM,59.0,53.6,82,30.29,10.0,Calm,Calm,-,N/A,,Overcast,0,2013-09-10 10:15:00
4:35 AM,59.0,53.8,83,30.29,10.0,Calm,Calm,-,N/A,,Overcast,0,2013-09-10 10:35:00
4:55 AM,58.5,53.8,84,30.29,10.0,Calm,Calm,-,N/A,,Mostly Cloudy,0,2013-09-10 10:55:00
5:15 AM,57.4,53.1,85,30.29,10.0,Calm,Calm,-,N/A,,Scattered Clouds,0,2013-09-10 11:15:00
5:35 AM,56.3,52.9,88,30.30,10.0,Calm,Calm,-,N/A,,Scattered Clouds,0,2013-09-10 11:35:00
5:55 AM,56.7,52.7,87,30.30,10.0,Calm,Calm,-,N/A,,Mostly Cloudy,0,2013-09-10 11:55:00
6:15 AM,56.3,52.9,88,30.31,10.0,Calm,Calm,-,N/A,,Mostly Cloudy,0,2013-09-10 12:15:00
6:35 AM,56.8,52.9,87,30.31,10.0,Calm,Calm,-,N/A,,Scattered Clouds,0,2013-09-10 12:35:00
6:55 AM,57.0,52.9,86,30.32,10.0,Calm,Calm,-,N/A,,Scattered Clouds,0,2013-09-10 12:55:00
7:15 AM,58.3,52.9,82,30.33,10.0,Calm,Calm,-,N/A,,Scattered Clouds,0,2013-09-10 13:15:00
7:35 AM,59.5,53.1,79,30.34,10.0,East,5.8,-,N/A,,Mostly Cloudy,100,2013-09-10 13:35:00
7:55 AM,59.4,53.1,80,30.34,10.0,Calm,Calm,-,N/A,,Scattered Clouds,0,2013-09-10 13:55:00
8:15 AM,60.6,52.9,76,30.34,10.0,ESE,8.1,-,N/A,,Mostly Cloudy,110,2013-09-10 14:15:00
8:35 AM,62.4,52.2,69,30.34,10.0,ESE,10.4,-,N/A,,Overcast,120,2013-09-10 14:35:00
8:55 AM,63.0,52.2,68,30.34,10.0,East,12.7,19.6,N/A,,Overcast,100,2013-09-10 14:55:00
9:15 AM,64.8,51.8,63,30.35,10.0,ESE,15.0,20.7,N/A,,Overcast,120,2013-09-10 15:15:00
9:35 AM,64.9,52.0,63,30.35,10.0,East,16.1,19.6,N/A,,Mostly Cloudy,100,2013-09-10 15:35:00
9:55 AM,63.9,51.8,65,30.35,10.0,ESE,12.7,21.9,N/A,,Mostly Cloudy,110,2013-09-10 15:55:00
10:15 AM,65.1,52.0,62,30.35,10.0,East,10.4,21.9,N/A,,Scattered Clouds,100,2013-09-10 16:15:00
10:35 AM,65.3,51.6,61,30.35,10.0,ESE,10.4,21.9,N/A,,Scattered Clouds,110,2013-09-10 16:35:00
10:55 AM,66.7,51.3,57,30.35,10.0,ESE,12.7,24.2,N/A,,Scattered Clouds,120,2013-09-10 16:55:00
11:15 AM,67.5,50.9,55,30.35,10.0,ESE,11.5,20.7,N/A,,Mostly Cloudy,120,2013-09-10 17:15:00
11:35 AM,68.0,50.2,53,30.34,10.0,ESE,17.3,21.9,N/A,,Overcast,120,2013-09-10 17:35:00
11:55 AM,68.0,50.0,52,30.34,10.0,ESE,17.3,21.9,N/A,,Overcast,110,2013-09-10 17:55:00
12:15 PM,68.5,50.4,52,30.33,10.0,ESE,13.8,24.2,N/A,,Mostly Cloudy,110,2013-09-10 18:15:00
12:35 PM,67.3,49.3,52,30.33,10.0,ESE,17.3,27.6,N/A,,Overcast,120,2013-09-10 18:35:00
12:55 PM,66.6,50.5,56,30.33,10.0,ESE,16.1,24.2,N/A,,Overcast,120,2013-09-10 18:55:00
1:15 PM,66.7,50.0,55,30.32,10.0,SE,18.4,23.0,N/A,,Overcast,130,2013-09-10 19:15:00
1:35 PM,66.7,50.0,55,30.32,10.0,ESE,16.1,25.3,N/A,,Overcast,110,2013-09-10 19:35:00
1:55 PM,67.8,50.2,53,30.31,10.0,ESE,17.3,27.6,N/A,,Overcast,120,2013-09-10 19:55:00
2:15 PM,68.0,50.5,54,30.30,10.0,ESE,15.0,24.2,N/A,,Scattered Clouds,120,2013-09-10 20:15:00
2:35 PM,68.2,49.1,50,30.30,10.0,ESE,18.4,26.5,N/A,,Mostly Cloudy,120,2013-09-10 20:35:00
2:55 PM,66.6,48.9,53,30.31,10.0,ESE,13.8,28.8,N/A,,Overcast,120,2013-09-10 20:55:00
3:15 PM,65.8,50.5,58,30.31,10.0,ESE,12.7,21.9,N/A,,Overcast,110,2013-09-10 21:15:00
3:35 PM,66.6,50.7,57,30.30,10.0,ESE,10.4,21.9,N/A,,Overcast,110,2013-09-10 21:35:00
3:55 PM,66.2,50.2,56,30.30,10.0,SE,11.5,24.2,N/A,,Overcast,130,2013-09-10 21:55:00
4:15 PM,64.4,51.3,62,30.32,10.0,SE,12.7,19.6,N/A,,Overcast,140,2013-09-10 22:15:00
4:35 PM,65.8,50.9,58,30.32,10.0,SSE,10.4,17.3,N/A,,Overcast,150,2013-09-10 22:35:00
4:55 PM,66.2,50.9,58,30.32,10.0,SE,11.5,16.1,N/A,,Overcast,140,2013-09-10 22:55:00
5:15 PM,66.2,50.7,57,30.32,10.0,SE,11.5,16.1,N/A,,Overcast,130,2013-09-10 23:15:00
5:35 PM,65.1,51.3,61,30.33,10.0,ESE,10.4,20.7,N/A,,Overcast,120,2013-09-10 23:35:00
5:55 PM,61.3,55.9,82,30.34,7.0,SE,11.5,17.3,N/A,,Overcast,130,2013-09-10 23:55:00
6:15 PM,58.6,55.4,89,30.35,5.0,ESE,8.1,-,N/A,,Overcast,120,2013-09-11 00:15:00
6:35 PM,58.1,55.8,92,30.35,5.0,ESE,11.5,18.4,N/A,,Overcast,110,2013-09-11 00:35:00
6:55 PM,58.3,55.4,90,30.36,10.0,ESE,12.7,16.1,N/A,,Overcast,110,2013-09-11 00:55:00
7:15 PM,57.9,55.6,92,30.37,7.0,SE,8.1,-,N/A,,Overcast,130,2013-09-11 01:15:00
7:35 PM,57.6,54.7,90,30.38,10.0,SSE,5.8,-,N/A,,Overcast,150,2013-09-11 01:35:00
7:55 PM,57.7,54.9,90,30.38,10.0,SE,6.9,-,N/A,,Overcast,140,2013-09-11 01:55:00
8:15 PM,58.3,54.7,88,30.39,10.0,SSW,4.6,-,N/A,,Overcast,210,2013-09-11 02:15:00
8:35 PM,58.1,55.2,90,30.39,10.0,SSW,4.6,-,N/A,,Overcast,200,2013-09-11 02:35:00
8:55 PM,58.1,54.9,89,30.40,7.0,Calm,Calm,-,N/A,,Overcast,0,2013-09-11 02:55:00
9:15 PM,57.6,55.6,93,30.41,7.0,Calm,Calm,-,N/A,,Overcast,0,2013-09-11 03:15:00
9:35 PM,57.4,55.6,94,30.41,7.0,Calm,Calm,-,N/A,,Overcast,0,2013-09-11 03:35:00
9:55 PM,57.4,56.1,96,30.40,7.0,North,3.5,-,N/A,,Overcast,10,2013-09-11 03:55:00
10:15 PM,57.0,55.4,94,30.41,7.0,Calm,Calm,-,N/A,,Mostly Cloudy,0,2013-09-11 04:15:00
10:35 PM,57.2,55.6,94,30.41,10.0,Calm,Calm,-,N/A,,Overcast,0,2013-09-11 04:35:00
10:55 PM,57.2,55.6,94,30.41,10.0,Calm,Calm,-,N/A,,Overcast,0,2013-09-11 04:55:00
11:15 PM,57.2,55.2,93,30.40,10.0,Calm,Calm,-,N/A,,Overcast,0,2013-09-11 05:15:00
11:35 PM,57.4,55.8,94,30.40,10.0,Calm,Calm,-,N/A,,Overcast,0,2013-09-11 05:35:00
11:55 PM,57.2,55.6,94,30.40,10.0,Calm,Calm,-,N/A,,Overcast,0,2013-09-11 05:55:00